Dewpoint
-8 -13 -5 -3 -1 -0 -0 -3 -6 1 4 4 4 5 13 13 15 16 14 13 13 11 4 4 4 4 5 6 6 7 7 7 7 6 5 5 4 3 3 3 4 4 5 5 7 8 6 5 5
-9 -6 -2 -4 -0 2 1 -4 -5 2 2 3 5 5 6 15 15 15 15 14 14 12 8 5 5 5 6 7 7 8 8 8 8 7 7 7 6 6 5 5 5 5 5 6 10 11 7 5 4
-7 -7 -5 -3 -0 1 1 -4 -5 -3 -1 1 6 6 12 14 13 14 14 15 14 13 10 5 6 7 7 8 8 9 9 9 9 9 9 9 8 8 8 7 7 6 8 9 8 9 7 6 6
-5 -4 -6 -5 -5 -6 -4 -6 -8 -9 -6 -1 0 13 13 14 14 14 15 15 15 14 10 7 7 8 8 9 9 9 9 9 9 9 9 11 11 9 8 8 8 8 8 9 10 8 9 7 6
-1 -4 -5 -5 -5 -7 -9 -10 -10 -9 -10 -10 -0 11 14 15 14 14 15 15 15 14 10 8 8 9 10 10 10 10 10 10 9 10 13 13 12 11 10 10 9 9 9 9 9 9 8 8 7
-0 -4 -3 -3 -5 -8 -10 -10 -9 -9 -10 -11 -9 12 15 15 14 14 15 15 15 14 11 9 9 10 10 10 10 10 9 9 9 10 10 10 11 11 10 10 10 10 10 10 9 9 9 9 8
-1 -2 -2 -3 -5 -7 -9 -9 -8 -9 -9 -1 0 11 15 15 15 14 15 15 15 15 14 12 10 10 10 10 10 10 9 9 9 10 10 10 10 10 10 10 10 10 10 10 10 9 8 8 8
-1 -2 -0 -2 -3 -5 -9 -9 -9 -9 -9 -1 -2 12 15 15 15 14 14 15 15 15 15 14 11 10 11 11 10 10 10 10 9 10 9 9 9 9 7 4 4 4 3 0 -2 -3 -4 -6 -6
-1 -0 0 -2 -3 -5 -5 -8 -10 -10 -8 -8 -1 7 11 14 14 13 15 15 14 14 14 14 12 11 11 11 10 10 10 10 9 8 7 7 6 0 -4 -7 -13 -10 -13 -13 -14 -14 -14 -12 -3
-3 -0 -1 -3 -4 -5 -4 -5 -5 -8 -8 -7 11 12 15 15 14 12 14 14 14 14 14 14 12 12 12 11 11 10 10 7 6 6 0 3 -4 -9 -14 -16 -17 -16 -16 -16 -16 -16 -15 -8 -2
-3 -2 -2 -3 -4 -3 -4 -4 -4 -6 -7 -8 10 15 15 13 12 12 14 14 14 14 14 14 14 14 12 11 11 10 8 6 5 3 -2 -7 -4 -10 -14 -16 -16 -16 -16 -12 -13 -15 -9 -4 -3
-2 -3 -4 -3 -3 -4 -5 -5 -4 -4 -4 -5 5 7 10 10 8 8 12 14 14 14 14 14 13 14 12 12 11 9 7 6 2 -2 -5 -7 -1 -2 -5 -11 -11 -13 -12 -10 -8 -9 -17 -14 -2
-1 -2 -2 -3 -4 -4 -5 -5 -4 -4 -4 -4 -5 9 8 9 8 9 8 9 11 13 14 14 13 13 13 12 11 9 7 5 -1 -8 -10 -9 2 -2 -5 -6 -9 -13 -12 -10 -12 -13 -19 -21 -23
-4 -4 -2 -2 -2 -3 -3 -3 -4 -5 -5 -5 -5 -5 5 8 8 10 11 10 10 11 14 14 13 13 13 13 10 7 7 5 -3 -12 -13 -7 1 -5 -3 -2 -8 -9 -12 -13 -14 -17 -18 -12 -11
-4 -3 -2 -2 -2 -2 -3 -2 -2 -4 -5 -5 -5 -5 -5 -0 9 5 2 6 6 7 8 13 13 13 13 13 10 8 5 0 -5 -9 -11 -5 -6 -3 -4 -5 -9 -11 -15 -15 -17 -13 -9 -8 -6
-2 -3 -0 -2 -2 -2 -3 -0 -3 -4 -5 -5 -5 -5 -5 -5 -5 2 -0 2 6 8 9 10 11 11 13 13 10 7 4 2 -3 -9 -9 -9 -7 -3 -7 -10 -12 -13 -16 -18 -13 -7 -5 -2 0
-1 1 -0 -1 -3 -2 -3 -1 -4 -5 -5 -5 -5 -6 -5 -5 -5 -5 -4 5 7 8 10 11 12 12 12 12 11 6 4 3 -1 -1 -2 -7 -6 -3 -8 -10 -11 -12 -18 -16 -9 -5 -3 -1 2
0 0 -1 -1 -3 -5 -4 -3 -4 -5 -5 -5 -5 -5 -5 -5 -5 -5 -5 -4 5 6 12 10 12 12 13 12 10 6 4 3 2 2 -2 -4 -5 -4 -6 -6 -9 -10 -14 -12 -7 -2 -2 0 1
-2 -2 -2 -3 -4 -3 -2 -3 -4 -6 -5 -5 -5 -5 -5 -5 -5 -6 -5 -5 -5 6 11 13 13 13 13 11 10 6 5 4 4 3 0 -1 -6 -5 -7 -7 -7 -11 -10 -9 -8 -4 -2 -0 -0
-1 -1 -1 -2 -4 -3 -3 -3 -4 -4 -4 -5 -5 -5 -4 -5 -5 -5 -5 -5 -5 -2 10 11 13 13 12 11 10 7 5 4 4 4 3 0 -5 -4 -6 -4 -5 -10 -10 -9 -8 -6 -6 -2 -0
-2 -1 -1 -1 -3 -4 -4 -3 -4 -5 -5 -6 -6 -6 -5 -5 -5 -3 -3 -3 -3 -3 -2 9 12 13 12 11 9 7 5 5 5 4 3 1 -3 -3 -5 -3 -6 -6 -7 -7 -7 -8 -7 -6 -3
-2 -5 -5 -5 -3 -0 -4 1 -3 -4 -5 -5 -7 -7 -5 -3 -1 -0 -0 -0 3 -1 3 7 12 12 11 10 9 7 6 4 4 4 3 2 -1 -4 -5 -5 -7 -8 -8 -6 -7 -7 -7 -7 -8
-5 -6 -6 -6 -4 -3 -4 -1 -3 -5 -4 -6 -6 -7 -0 0 1 0 0 0 2 9 11 12 12 11 10 10 9 7 6 5 4 4 3 3 1 -1 -2 -2 -2 -6 -8 -8 -8 -6 -4 -5 -4
-7 -6 -5 -6 -5 -1 -5 -1 -4 -6 -5 -3 -1 -1 0 1 -0 -0 1 1 5 9 12 12 12 11 11 9 8 8 6 5 4 4 3 3 1 -0 0 -0 -1 -3 -5 -5 -6 -7 -3 -2 -3
-6 -3 1 0 1 -0 -6 -3 -5 -2 -0 -1 1 0 0 1 1 1 0 3 6 11 12 12 11 11 10 9 9 8 6 5 4 4 3 3 1 1 1 0 -0 -1 -2 -4 -5 -7 -6 -3 -3
-0 -1 3 5 3 4 -1 1 -4 2 3 3 2 2 1 0 1 2 2 2 3 7 11 11 11 11 10 10 9 7 6 5 4 4 3 3 2 1 -0 -0 -0 -1 -1 -3 -6 -8 -10 -11 -12
1 2 -1 2 3 4 1 -2 -5 2 3 3 3 4 4 3 2 1 2 2 3 4 5 9 10 10 9 9 9 8 6 5 4 4 3 3 2 1 0 -0 -1 -2 -4 -7 -9 -11 -12 -12 -12
-4 -5 2 3 6 4 -1 -3 -3 5 5 3 3 4 3 3 3 3 2 2 3 4 7 7 7 9 10 9 9 8 7 5 4 4 3 3 2 1 0 -0 -1 -3 -7 -8 -5 -2 -1 -2 -3
-3 -0 2 3 5 5 4 1 2 5 4 3 2 2 3 2 2 3 3 2 2 3 4 5 5 5 6 8 8 8 7 6 5 4 3 3 2 1 1 0 -2 -5 -3 -0 1 1 1 0 -10
-7 -6 -6 -1 -2 2 2 1 -4 1 2 2 1 0 0 -0 0 1 2 3 1 -1 -1 2 4 4 5 6 7 7 7 6 6 4 3 2 2 2 1 -3 -4 -2 1 1 1 0 -7 -15 -20
Wind_Speed
10 5 4 4 2 2 8 10 16 7 1 9 11 11 12 8 5 5 10 21 19 25 27 26 24 22 20 18 16 15 14 12 10 10 9 8 7 7 6 6 6 5 5 4 3 3 2 1 1
7 5 7 6 2 3 9 14 14 5 6 7 11 11 8 4 9 16 13 10 17 23 24 26 24 22 20 18 16 15 14 13 10 10 9 8 7 6 6 5 4 5 5 4 4 3 0 1 1
5 4 3 4 4 10 6 1 3 10 14 13 5 10 7 8 12 19 10 15 17 19 21 27 25 23 20 18 16 15 13 12 11 10 10 9 8 7 6 6 5 5 4 4 4 3 2 1 1
4 4 6 0 12 18 17 15 8 7 12 10 7 7 10 6 15 15 19 16 12 15 21 27 26 23 21 18 17 16 14 13 12 11 12 9 8 7 7 7 6 5 5 4 4 3 3 3 2
10 6 2 4 13 17 20 7 6 5 3 4 6 7 8 8 7 23 19 15 16 15 26 28 25 23 21 20 19 17 16 15 13 11 11 9 8 7 7 7 7 7 6 6 5 5 5 4 3
8 4 2 7 16 17 15 15 13 6 5 5 1 11 6 12 8 27 26 20 17 16 22 26 25 24 23 23 21 18 15 13 12 11 10 8 8 8 7 7 7 7 7 7 7 6 5 5 4
8 2 7 9 15 16 13 4 5 6 3 5 6 5 14 13 14 20 28 26 22 22 21 22 24 24 23 21 19 16 14 13 12 11 10 10 9 9 8 8 8 8 7 7 7 6 5 4 3
16 4 8 9 10 15 11 7 6 2 1 5 4 6 7 21 15 15 21 20 20 21 22 22 24 24 23 22 19 17 16 15 14 13 12 12 11 11 10 9 8 8 8 8 7 6 5 4 4
21 4 7 8 12 12 14 7 7 6 3 5 1 9 12 22 18 17 20 20 20 20 22 22 26 26 25 22 21 21 19 18 16 15 14 13 13 12 9 7 7 8 6 6 5 4 5 5 7
2 5 9 11 16 10 12 9 14 8 2 4 12 15 25 22 19 19 22 24 22 23 24 23 27 28 26 25 24 23 22 20 18 17 16 16 15 13 10 9 7 7 6 5 6 7 8 9 9
7 6 8 15 25 22 6 9 12 10 8 14 16 22 22 18 17 19 19 21 22 23 24 25 25 26 25 26 26 24 23 22 20 19 19 19 17 15 12 10 9 9 8 7 7 6 6 7 6
12 24 23 24 28 23 4 16 6 12 15 18 3 14 22 21 19 19 20 24 24 25 25 25 24 24 25 25 27 25 24 23 23 21 22 21 17 14 12 11 10 10 8 9 8 6 5 8 10
9 9 20 25 19 16 16 7 10 15 25 24 24 19 23 24 21 18 16 17 20 27 28 30 27 26 26 26 26 27 26 26 24 23 26 23 19 19 18 15 12 11 9 10 8 7 8 8 8
15 21 21 26 26 26 12 10 13 21 24 26 26 31 22 27 26 25 24 24 23 23 30 30 31 30 29 28 28 27 28 28 26 25 27 24 22 22 19 16 15 13 13 12 10 9 8 8 8
18 12 11 12 14 13 22 13 18 31 31 31 33 33 33 30 32 27 26 29 26 26 27 33 35 34 33 32 29 28 29 29 28 28 27 25 26 23 22 21 20 17 13 12 12 11 9 7 7
9 6 6 7 10 23 12 21 17 29 22 29 25 40 34 25 23 23 32 33 32 31 32 34 34 34 35 34 32 31 31 31 30 31 30 31 28 24 24 23 22 19 17 16 15 13 11 9 6
5 7 10 12 14 14 9 19 17 24 22 15 9 11 14 17 21 24 20 31 35 38 37 36 40 38 36 34 35 33 34 33 31 31 30 32 30 26 26 25 23 20 20 19 17 15 13 14 10
7 9 9 9 11 6 9 8 7 18 21 18 20 17 19 21 24 27 32 30 33 36 43 38 44 44 40 35 35 34 35 34 33 34 32 32 31 28 27 27 23 21 22 20 20 18 16 16 10
15 17 16 12 11 7 9 8 7 8 13 14 17 27 28 30 33 36 38 34 33 39 47 47 51 50 46 41 41 41 39 35 34 34 33 32 32 30 31 28 25 25 23 22 20 23 19 20 16
15 15 13 13 9 12 14 24 10 10 11 16 16 18 27 32 34 37 35 35 27 38 48 49 55 55 49 44 41 43 41 38 37 36 33 30 31 32 32 28 27 28 27 26 24 23 24 24 22
16 11 8 11 7 8 9 26 11 10 13 25 28 29 34 36 38 21 23 20 31 36 47 51 57 57 51 46 42 40 36 37 37 38 37 34 33 34 33 28 30 29 26 24 26 25 24 24 27
16 4 8 10 8 5 3 17 15 14 16 12 18 21 18 10 8 7 9 9 9 28 41 48 56 54 50 46 42 41 43 45 42 40 36 33 33 34 34 30 32 31 29 27 28 27 26 24 24
3 8 4 3 4 8 7 4 24 1 11 13 14 25 9 8 6 5 3 2 3 16 36 45 50 48 46 42 38 39 39 41 39 35 32 28 26 30 33 32 31 31 31 29 28 28 26 24 23
3 4 8 5 2 6 20 7 23 13 7 12 13 7 8 8 6 4 4 2 1 13 28 39 41 41 40 39 38 37 38 38 38 37 36 32 30 31 29 31 32 32 31 27 27 27 26 25 23
4 1 3 3 4 10 3 6 15 6 4 11 3 10 6 8 12 13 10 7 6 6 18 31 35 35 34 35 32 33 36 38 38 38 37 34 33 32 29 29 29 30 29 28 27 26 26 26 25
4 2 4 5 2 7 14 6 4 17 24 33 33 30 18 12 11 13 11 7 6 3 8 22 30 31 30 32 35 37 35 38 39 39 36 34 34 34 33 32 29 27 24 23 23 22 22 22 20
3 3 1 4 5 4 4 7 14 14 16 19 21 29 32 35 24 10 12 11 8 3 2 6 19 25 29 32 36 36 31 40 39 39 36 35 35 35 34 31 27 24 23 22 21 17 15 13 11
5 5 4 2 4 6 7 11 10 12 13 13 15 16 22 30 34 29 14 11 13 7 2 5 8 14 19 25 32 38 32 37 38 40 40 38 37 34 30 26 22 21 20 16 14 12 11 13 13
6 3 4 1 3 3 6 5 5 4 4 4 5 12 13 14 27 30 31 11 13 10 7 9 10 9 10 17 25 29 30 32 32 36 39 38 34 30 27 27 24 22 18 19 23 22 24 20 22
9 11 8 3 10 6 4 13 10 3 5 6 6 8 8 10 20 19 32 17 17 12 7 8 8 7 10 15 20 22 26 31 34 38 39 37 33 29 28 27 29 26 25 24 21 19 20 22 21
Wind_Direction
305 279 319 296 45 104 256 256 236 343 61 72 71 75 111 70 43 140 144 189 188 170 171 171 169 166 164 161 159 159 156 152 156 151 146 143 140 137 136 138 140 135 131 122 116 112 93 49 34
304 259 287 285 140 304 276 244 259 129 116 89 71 57 80 103 109 132 153 169 172 172 174 175 171 169 167 166 166 166 163 160 163 163 159 157 156 157 158 158 155 155 153 151 154 170 152 10 357
313 250 258 167 211 236 250 333 234 141 107 70 63 50 66 110 119 146 186 179 165 174 178 178 174 172 170 171 172 170 170 166 171 175 170 170 176 178 178 183 192 191 184 186 193 208 220 262 298
299 276 254 205 263 260 241 278 197 54 66 106 103 90 90 111 155 154 173 186 189 188 185 179 177 174 173 174 177 175 176 175 181 186 184 180 184 189 195 201 206 214 214 214 228 248 273 276 279
274 273 253 275 267 270 280 263 73 90 100 65 150 146 87 107 168 151 150 175 202 178 176 180 178 176 176 178 180 178 183 185 189 183 161 175 184 190 198 206 213 218 228 233 235 243 260 266 268
253 251 319 281 277 284 290 244 114 76 24 335 357 110 81 161 183 156 171 178 193 176 165 181 182 180 180 183 185 188 186 182 185 188 180 180 197 208 209 210 215 220 226 236 241 241 237 243 247
216 166 251 266 283 297 299 126 105 117 67 44 4 59 132 147 161 163 182 183 179 181 182 183 190 189 187 189 188 187 187 189 189 194 190 192 200 207 210 210 213 218 221 224 229 233 229 218 211
265 138 265 264 280 283 323 17 92 130 7 86 350 133 165 166 182 183 186 195 192 188 194 195 197 194 189 190 190 190 192 193 192 192 193 194 198 205 208 208 209 215 218 221 223 221 218 213 201
262 271 259 253 269 279 335 26 357 306 77 328 281 148 170 186 193 194 187 194 205 201 206 204 204 197 194 194 193 194 193 193 193 192 195 195 200 203 199 200 202 205 206 207 204 199 186 160 127
246 242 244 243 263 274 326 5 342 2 308 273 83 140 162 174 189 193 195 196 202 202 202 210 204 201 197 197 199 197 195 196 195 195 197 195 201 197 190 184 185 188 191 185 173 169 166 163 156
268 235 259 258 268 288 302 324 321 330 319 297 148 163 173 180 192 198 203 204 206 204 208 207 207 207 202 202 202 201 198 198 196 195 199 198 190 178 170 180 184 185 182 168 167 165 165 179 174
255 269 270 271 271 283 301 311 304 303 282 302 182 193 188 194 198 200 207 208 207 207 210 206 212 210 214 204 209 206 204 202 202 195 199 203 194 197 191 188 182 188 176 184 174 167 172 180 193
280 264 280 289 287 300 301 287 250 248 275 289 288 198 201 205 209 208 219 223 219 209 206 207 211 217 220 212 209 209 208 208 206 200 200 204 201 208 197 188 185 181 184 191 183 177 166 157 163
283 296 296 299 303 301 294 289 273 253 252 260 269 276 228 213 211 206 206 218 223 217 208 205 213 219 218 221 210 208 210 209 209 204 206 201 203 198 198 196 194 187 190 191 187 175 164 154 148
290 283 297 285 294 278 272 271 262 267 260 247 245 247 254 237 211 218 234 229 237 230 215 206 216 215 215 220 212 214 209 209 213 209 207 202 201 202 202 203 200 201 193 185 184 175 163 168 150
302 293 283 279 254 265 236 260 257 258 262 241 250 237 235 230 227 227 238 240 235 228 216 209 216 219 217 219 214 209 210 213 214 209 204 205 205 205 203 203 201 195 191 182 175 171 167 165 160
251 258 253 282 251 243 226 249 243 242 265 259 213 210 219 233 231 236 247 229 235 233 217 213 214 221 218 218 216 209 213 216 214 214 209 208 208 207 204 203 204 194 193 188 184 181 173 171 180
233 230 255 249 274 305 293 278 282 217 241 236 231 226 229 242 235 239 241 245 227 234 220 220 218 219 217 214 210 209 216 218 218 219 213 210 210 205 204 205 205 200 197 193 184 186 174 167 184
253 265 272 288 298 317 290 288 291 273 270 275 258 232 233 238 238 242 243 235 238 224 221 214 215 216 213 206 202 206 211 213 217 220 217 215 210 201 205 207 202 203 197 196 192 182 181 172 179
269 279 288 296 303 311 315 298 291 283 282 291 278 269 243 239 240 243 252 227 231 230 218 217 216 215 213 212 208 210 209 208 215 220 221 216 209 201 206 208 203 204 200 195 197 190 184 183 175
265 269 263 271 296 307 318 289 283 277 255 264 272 275 270 268 264 225 216 223 230 234 228 217 214 213 212 212 205 205 204 204 206 215 220 214 208 202 207 206 204 204 207 203 199 198 195 189 191
268 333 21 10 7 281 237 291 276 273 279 293 299 299 320 256 180 187 199 190 207 229 230 215 207 206 207 207 202 203 202 202 207 212 216 212 207 201 205 206 205 206 209 208 204 203 205 200 197
250 23 358 332 329 324 259 262 279 208 291 269 261 277 99 88 74 51 359 279 278 207 208 201 201 203 205 206 208 205 201 203 209 209 215 218 210 204 202 204 207 209 208 205 203 204 206 207 206
317 355 306 276 140 253 266 192 272 306 337 336 334 17 93 58 30 10 36 326 335 184 201 201 205 204 207 205 203 206 205 206 208 208 212 214 211 208 209 209 208 209 211 207 203 201 200 202 209
158 120 309 307 191 231 46 260 239 69 21 337 89 101 69 34 18 360 4 13 29 135 181 198 197 201 203 204 212 210 203 207 213 213 214 213 209 208 209 210 209 208 207 205 202 198 196 199 206
349 150 166 261 255 311 326 248 225 53 22 19 23 23 22 36 32 23 3 2 5 11 158 185 195 202 207 207 208 203 206 210 213 216 216 215 212 209 211 210 210 209 208 202 196 192 191 193 197
33 15 17 323 270 247 242 291 315 32 27 16 12 15 8 11 3 355 352 343 328 325 248 203 183 193 201 206 209 207 205 206 208 210 208 210 211 208 210 210 209 206 205 195 183 175 170 172 188
62 336 15 356 288 260 272 297 286 22 7 6 1 13 17 5 1 358 348 348 319 339 7 266 219 193 201 209 210 209 198 200 206 208 206 206 209 208 208 210 207 201 184 180 173 172 207 216 217
357 6 21 75 154 262 292 269 107 88 50 357 328 346 351 323 330 328 324 301 301 304 299 272 273 257 227 231 217 211 204 203 203 202 204 207 210 208 203 206 202 198 193 223 241 241 243 219 205
292 283 269 167 275 232 244 260 317 299 164 216 271 292 296 312 282 277 313 266 270 290 298 262 262 261 239 223 225 212 214 207 206 204 204 202 204 206 198 191 193 210 229 230 223 211 198 199 196
Height
1504 1504 1504 1503 1514 1509 1509 1488 1466 1469 1465 1459 1456 1457 1468 1472 1478 1494 1489 1489 1490 1493 1496 1499 1502 1504 1507 1510 1514 1517 1519 1522 1524 1526 1528 1529 1530 1532 1533 1534 1534 1535 1536 1537 1538 1538 1539 1540 1541
1503 1504 1503 1502 1515 1524 1505 1472 1471 1465 1461 1459 1457 1459 1463 1478 1479 1483 1485 1488 1491 1493 1495 1498 1501 1504 1507 1510 1513 1516 1519 1521 1524 1526 1527 1529 1530 1531 1533 1533 1534 1535 1536 1536 1537 1538 1539 1540 1541
1502 1502 1503 1503 1509 1509 1503 1469 1467 1459 1458 1457 1460 1462 1467 1476 1480 1483 1484 1487 1491 1493 1494 1497 1500 1503 1506 1510 1513 1516 1518 1520 1523 1525 1526 1528 1529 1531 1532 1533 1534 1534 1535 1536 1536 1538 1538 1539 1540
1502 1502 1501 1504 1506 1485 1480 1467 1466 1456 1456 1459 1461 1468 1472 1476 1479 1484 1483 1485 1489 1491 1494 1496 1499 1502 1505 1508 1512 1515 1518 1519 1522 1524 1525 1527 1529 1530 1532 1533 1533 1534 1535 1535 1536 1537 1538 1538 1539
1501 1501 1506 1505 1496 1479 1468 1466 1457 1457 1457 1458 1461 1467 1474 1477 1481 1485 1485 1487 1485 1488 1491 1496 1499 1502 1504 1507 1510 1513 1516 1518 1521 1523 1524 1526 1528 1530 1531 1533 1533 1534 1534 1535 1535 1536 1536 1537 1538
1501 1496 1512 1512 1491 1477 1468 1458 1453 1456 1457 1458 1459 1467 1480 1478 1479 1485 1480 1484 1486 1487 1490 1494 1498 1500 1503 1506 1508 1511 1514 1516 1519 1521 1522 1524 1527 1528 1530 1531 1532 1533 1533 1533 1534 1534 1534 1535 1536
1496 1499 1507 1502 1491 1478 1465 1455 1454 1455 1457 1460 1461 1469 1481 1480 1480 1483 1483 1483 1486 1489 1491 1493 1496 1498 1501 1504 1506 1509 1512 1515 1517 1520 1521 1523 1525 1526 1528 1529 1530 1531 1531 1532 1532 1533 1533 1534 1535
1490 1493 1499 1494 1490 1479 1464 1460 1459 1458 1458 1457 1462 1470 1480 1476 1478 1481 1485 1486 1487 1489 1491 1492 1495 1496 1499 1502 1504 1507 1510 1513 1516 1518 1520 1521 1523 1524 1525 1526 1528 1529 1530 1530 1531 1531 1532 1533 1533
1487 1496 1498 1491 1483 1472 1464 1463 1462 1460 1459 1460 1463 1464 1467 1470 1474 1477 1482 1485 1486 1488 1489 1490 1492 1495 1497 1500 1502 1505 1508 1511 1513 1515 1517 1519 1521 1522 1523 1525 1526 1527 1528 1529 1529 1530 1531 1531 1532
1484 1490 1486 1474 1470 1471 1464 1464 1462 1463 1461 1461 1463 1465 1467 1469 1473 1473 1475 1479 1483 1484 1486 1489 1490 1492 1495 1496 1500 1502 1505 1508 1510 1513 1515 1516 1518 1520 1521 1523 1525 1526 1527 1527 1528 1528 1529 1530 1530
1477 1482 1474 1467 1464 1465 1464 1462 1461 1462 1463 1461 1462 1467 1467 1468 1471 1472 1475 1478 1479 1483 1486 1487 1488 1491 1493 1495 1497 1499 1502 1504 1507 1511 1513 1514 1515 1518 1519 1521 1522 1524 1525 1526 1526 1527 1528 1529 1529
1480 1471 1468 1463 1461 1458 1459 1460 1461 1461 1462 1462 1462 1459 1463 1464 1465 1467 1469 1473 1475 1478 1481 1484 1486 1488 1490 1494 1495 1498 1500 1502 1504 1508 1511 1511 1512 1515 1517 1518 1520 1521 1523 1524 1524 1525 1526 1528 1529
1472 1467 1464 1461 1459 1457 1455 1454 1456 1456 1457 1458 1458 1459 1457 1459 1460 1462 1464 1468 1470 1471 1475 1478 1482 1485 1487 1489 1492 1495 1497 1499 1501 1505 1508 1509 1512 1514 1516 1516 1517 1518 1520 1522 1522 1524 1525 1527 1527
1467 1464 1461 1458 1456 1454 1455 1454 1452 1448 1452 1455 1455 1453 1455 1455 1454 1456 1458 1459 1462 1467 1470 1474 1476 1478 1482 1484 1487 1490 1493 1496 1498 1501 1504 1507 1510 1512 1513 1514 1514 1516 1518 1520 1522 1522 1523 1525 1526
1466 1468 1460 1454 1454 1452 1452 1453 1449 1447 1448 1447 1448 1449 1451 1451 1450 1450 1451 1452 1456 1458 1460 1464 1469 1472 1475 1477 1482 1486 1488 1491 1494 1497 1500 1503 1505 1508 1511 1512 1512 1513 1515 1518 1520 1521 1522 1524 1525
1469 1466 1472 1451 1450 1447 1452 1453 1441 1442 1441 1440 1438 1436 1439 1441 1446 1444 1446 1447 1450 1452 1455 1457 1459 1463 1469 1473 1477 1480 1483 1487 1489 1491 1494 1497 1500 1504 1507 1509 1510 1511 1513 1515 1518 1520 1521 1523 1524
1473 1480 1469 1458 1442 1442 1444 1440 1433 1435 1434 1433 1434 1435 1437 1439 1440 1441 1439 1442 1444 1444 1447 1452 1454 1456 1461 1468 1474 1477 1480 1482 1485 1488 1492 1494 1497 1500 1503 1505 1506 1508 1509 1512 1515 1518 1519 1521 1524
1473 1470 1459 1457 1442 1437 1439 1438 1431 1426 1426 1428 1431 1432 1434 1436 1437 1438 1439 1438 1436 1438 1438 1444 1444 1447 1453 1461 1468 1473 1478 1480 1482 1483 1487 1490 1493 1496 1499 1501 1504 1506 1507 1508 1512 1515 1518 1520 1523
1460 1458 1457 1448 1439 1438 1436 1434 1431 1429 1428 1426 1426 1428 1427 1428 1429 1429 1429 1430 1431 1430 1431 1436 1439 1442 1446 1449 1454 1462 1469 1475 1478 1480 1483 1486 1489 1491 1493 1497 1499 1501 1504 1505 1508 1511 1515 1518 1520
1454 1455 1452 1442 1438 1439 1434 1421 1424 1423 1421 1422 1421 1421 1422 1423 1421 1422 1422 1424 1425 1424 1422 1426 1430 1432 1438 1443 1448 1452 1458 1464 1471 1475 1478 1481 1485 1487 1489 1493 1495 1496 1497 1500 1502 1504 1508 1513 1516
1449 1451 1450 1448 1440 1438 1439 1417 1424 1418 1414 1414 1415 1416 1414 1413 1412 1412 1413 1414 1417 1417 1412 1414 1418 1424 1431 1437 1443 1449 1458 1462 1464 1465 1468 1472 1477 1481 1484 1489 1490 1492 1495 1497 1497 1499 1502 1505 1510
1451 1442 1446 1449 1456 1464 1439 1444 1425 1420 1419 1418 1411 1412 1411 1406 1408 1410 1409 1409 1408 1407 1411 1411 1415 1423 1429 1435 1441 1443 1447 1455 1457 1463 1468 1471 1471 1473 1476 1482 1484 1488 1490 1492 1494 1495 1497 1500 1503
1448 1443 1445 1449 1457 1457 1441 1464 1404 1418 1426 1418 1411 1409 1411 1409 1407 1408 1409 1410 1408 1404 1406 1410 1412 1420 1423 1431 1437 1442 1447 1453 1457 1463 1469 1476 1479 1478 1472 1474 1478 1482 1483 1486 1489 1491 1493 1497 1499
1439 1445 1449 1449 1458 1471 1428 1456 1418 1420 1428 1422 1415 1412 1412 1411 1412 1412 1412 1408 1407 1404 1403 1405 1410 1415 1422 1429 1435 1439 1442 1447 1453 1458 1462 1467 1472 1476 1477 1475 1472 1474 1478 1482 1484 1487 1489 1492 1495
1438 1451 1471 1468 1468 1453 1429 1442 1425 1425 1425 1424 1418 1415 1416 1416 1418 1418 1416 1413 1411 1408 1407 1407 1409 1412 1419 1426 1430 1437 1435 1439 1447 1453 1458 1460 1464 1469 1472 1474 1475 1474 1474 1475 1479 1481 1484 1489 1491
1446 1449 1472 1468 1463 1458 1437 1443 1427 1428 1430 1432 1431 1430 1426 1424 1422 1422 1422 1420 1418 1414 1409 1408 1411 1413 1414 1421 1429 1432 1432 1437 1440 1446 1453 1455 1459 1463 1465 1468 1471 1472 1476 1475 1476 1479 1481 1485 1488
1450 1460 1455 1460 1459 1468 1445 1433 1423 1425 1431 1432 1437 1438 1437 1433 1433 1427 1426 1426 1421 1417 1412 1411 1408 1409 1416 1418 1424 1428 1429 1432 1437 1441 1448 1450 1454 1455 1460 1464 1467 1470 1473 1473 1472 1476 1481 1485 1486
1453 1454 1468 1469 1472 1462 1441 1438 1432 1437 1439 1438 1437 1440 1439 1439 1439 1438 1431 1429 1429 1421 1415 1419 1414 1406 1411 1416 1419 1423 1424 1429 1433 1436 1440 1443 1449 1451 1456 1463 1467 1470 1469 1478 1475 1471 1477 1483 1483
1459 1463 1466 1470 1475 1475 1460 1449 1438 1442 1443 1443 1442 1441 1438 1435 1442 1443 1442 1434 1431 1427 1419 1418 1418 1413 1409 1416 1417 1420 1421 1427 1433 1435 1438 1442 1445 1451 1451 1455 1461 1467 1470 1469 1473 1469 1472 1479 1484
1458 1459 1459 1485 1477 1471 1468 1452 1436 1439 1438 1438 1434 1435 1434 1431 1431 1432 1442 1438 1429 1427 1419 1417 1417 1414 1414 1414 1420 1415 1419 1423 1426 1431 1434 1439 1442 1446 1447 1452 1460 1463 1467 1468 1470 1468 1471 1477 1480